Location: Krakow
(50.0830°N, 19.9170°E)
Time: 07:40:20
(UTC+02:00)

A-11 Canister half - Pass Details

Date: 20 March 2026
Orbit: 1523 x 1684 km, 47.3° (Epoch: 18 April)

Event Time Altitude Azimuth Distance (km) Brightness Sun altitude
Rises 09:15:04 0° 245° (WSW) 4,895 11.5 30.2°
Reaches altitude 10° 09:18:16 10° 243° (WSW) 3,892 11.0 30.6°
Maximum altitude 09:28:05 68° 164° (SSE) 1,713 10.3 31.6°
Drops below altitude 10° 09:37:34 10° 84° (E) 3,771 11.6 32.6°
Sets 09:40:37 0° 82° (E) 4,736 11.9 33.0°
